sat.trackr.live / text

‹ back to catalog

STARLINK-34439

NORAD 64458 · 2025-130W

PAYLOAD ACTIVE UNKNOWN

§ Identity

Operator
Country
US
Launch date
2025-06-18
Launch site
AFETR
Launch vehicle
Mass (kg)
RCS (m²)

Purposes: comms

External: N2YO · Heavens-Above · Gunter

§ Orbital elements

Epoch: 2026-09-20T23:21:45.202176Z

Period
93.85 min
Inclination
53.1594°
Eccentricity
0.0001767
Mean motion
15.34393895 rev/d
Perigee alt
461.5 km
Apogee alt
463.9 km
Semi-major
6,840.9 km
B*
3.4164e-4
RAAN
259.2096°
Arg perigee
110.7853°
Mean anomaly
249.3339°
Rev number
7,063

§ Raw data

STARLINK-344391 64458U 25130W   26263.97343984  .00011182  00000+0  34164-3 0  99972 64458  53.1594 259.2096 0001767 110.7853 249.3339 15.34393895 70634

JSON: /api/v1/satellites/64458 · /tle

For live sub-satellite position, see the globe view (requires WebGL).

§ Visibility from observer

Set your observer location to see the next 7 days of passes ≥ 10°. The values pass through the URL so the page stays shareable.

No JS? Fill the form by hand. The geolocation button needs JavaScript.